Find Starlink 35693

NORAD ID: 66490 Int'l Des: 2025-263 Owner: SPXS Country: US Constellation: starlink operational
LEOCIRCULAR

現在のビュー

3D地球を読み込み中...

About Starlink 35693

Starlink 35693 (NORAD 66490) is a starlink constellation satellite (v2 mini) launched Nov 15, 2025 by SPXS of US. It operates in LEO, CIRCULAR orbit with a mass of 575.00 kg.

次回通過

Passes for default location (London). Set your location on the main map for personalized predictions.

高度履歴

Loading altitude history...

軌道要素

1 66490U 25263F 26237.07181710 .00025137 00000-0 91943-3 0 9995
2 66490 43.0036 119.5213 0002202 257.7971 102.2635 15.27594638 44657
Epoch: Aug 25, 2026 • Age: 16 hours

現在のステータス

高度 483.9 km
遠地点 / 近地点 N/A
速度 7.63 km/s
衛星直下点 27.20°N, 18.17°E
打ち上げ日 Nov 15, 2025
運用期間 0.7 years
タイプ internet

技術仕様

分類 Payload
質量 575.00 kg
乾燥質量 530.00 kg
総質量 575.00 kg
長さ 0.30 m
直径 4.10 m
スパン 29.00 m
形状 Box + pan
製造者 SPXS
バスタイプ Starlink V2MO
フェーズステータス In Orbit
所有者/国 SPXS/US

Most Searched